322  
ASUS43 KFGF 251231  
RWRFGF  
PRAIRIE TO PINES WEATHER ROUNDUP  
NATIONAL WEATHER SERVICE EASTERN NORTH DAKOTA/GRAND FORKS ND  
700 AM CDT WED APR 25 2018  
 
**SATELLITE DATA USED TO AUGMENT SKY COVER AT AUTOMATED STATIONS**  
***** WEATHER ACROSS EASTERN NORTH DAKOTA *****  
 
CITY SKY/WX TMP DP RH WIND PRES REMARKS
 
GRAND FORKS FAIR 33 30 88 S9 30.19F  
6HR MIN TEMP: 30; 6HR MAX TEMP: 33;  
 
GRAND FRKS AFB FAIR 38 30 71 S10 30.17F  
GRAND FRKS NWS N/A 38 31 77 S13 30.16F  
DEVILS LAKE FAIR 35 28 75 SW10 30.15F  
6HR MIN TEMP: 31; 6HR MAX TEMP: 38;  
 
FARGO FAIR 32 28 85 S8 30.26F WCI 25  
WAHPETON ARPT FAIR 32 28 86 CALM 30.28F  

 
 
***** WEATHER ACROSS CENTRAL AND WESTERN NORTH DAKOTA *****  
 
CITY SKY/WX TMP DP RH WIND PRES REMARKS
 
BISMARCK FAIR 30 26 85 CALM 30.22F  
6HR MIN TEMP: 28; 6HR MAX TEMP: 39;  
 
MINOT FAIR 41 30 65 SW10 30.10F  
6HR MIN TEMP: 41; 6HR MAX TEMP: 48;  
 
JAMESTOWN FAIR 33 28 81 SW8 30.21F  
6HR MIN TEMP: 30; 6HR MAX TEMP: 35;  
 
MINOT AFB FAIR 40 30 65 SW12 30.08F  
GARRISON N/A 34 29 82 SW8 30.15F  
WILLISTON FAIR 39 28 64 S5 30.09F  
6HR MIN TEMP: 36; 6HR MAX TEMP: 46;  
 
DICKINSON FAIR 33 28 81 SW14 30.14F WCI 23  
6HR MIN TEMP: 31; 6HR MAX TEMP: 38;  
 
HETTINGER FAIR 28 23 81 SW3 30.23F  
6HR MIN TEMP: 27; 6HR MAX TEMP: 33;  
 

 
 
***** OTHER AIRPORT OBSERVATIONS IN OUR AREA *****  
 
CITY SKY/WX TMP DP RH WIND PRES REMARKS
 
WALHALLA NOT AVBL  
GRAFTON AIRPOR FAIR 34 30 86 S9 30.16F  
VALLEY CITY AR FAIR 36 36 100 SW13 30.23F  
CANDO FAIR 36 34 93 SW10 30.14S  
CAVALIER APRT N/A 41 28 60 S12 30.10F  
GWINNER N/A 32 30 93 SW8 30.26S WCI 25  
SHEYENNE NWR N/A 26 26 100 SW2 29.95S  
ROLLA FAIR 37 28 70 SW15 30.08F  
***** THE ABOVE OBSERVATIONS ARE NON NWS ARE NOT QUALITY  
CONTROLLED AND MAY MIS-REPORT RAIN FOR SNOW...  

 
 
***** WEATHER ACROSS NORTHERN MINNESOTA *****  
 
CITY SKY/WX TMP DP RH WIND PRES REMARKS
 
FLAG ISLAND FAIR 28 23 80 S10 30.15F WCI 19  
WARROAD FAIR 36 27 69 S9 30.16F  
ROSEAU FAIR 34 28 80 S10 30.16F  
HALLOCK FAIR 37 30 75 S14 30.13F  
THF RVR FALLS NOT AVBL  
BAUDETTE FAIR 32 23 69 S9 30.19F WCI 24  
6HR MIN TEMP: 28; 6HR MAX TEMP: 32;  
 
WASKISH FAIR 30 23 74 S5 30.21F  
CROOKSTON FAIR 34 30 86 S9 30.22F  
STEPHEN NDAWN N/A 36 28 75 S12 N/A  
GREENBUSH NDAW N/A 36 28 75 S10 N/A  

 
***** WEATHER ACROSS CENTRAL AND WEST MINNESOTA *****  
 
CITY SKY/WX TMP DP RH WIND PRES REMARKS
 
FOSSTON FAIR 28 23 80 S5 30.23F WCI 23  
BEMIDJI FAIR 26 22 86 CALM 30.23F  
6HR MIN TEMP: 19; 6HR MAX TEMP: 28;  
 
PARK RAPIDS FAIR 26 21 81 CALM 30.24F  
6HR MIN TEMP: 24; 6HR MAX TEMP: 30;  
 
ELBOW LAKE FAIR 29 27 94 CALM 30.29S  
WADENA FAIR 27 25 93 CALM 30.26S  
DETROIT LAKES FAIR 32 27 80 CALM 30.26F  
MOORHEAD FAIR 36 27 69 S8 30.27S  
FERGUS FALLS FAIR 30 25 80 CALM 30.27F  
MORRIS MN FAIR 30 28 93 CALM 30.28S  
STAPLES FAIR 27 25 93 CALM 30.27R  

 
***** WEATHER ELSEWHERE ACROSS MINNESOTA *****  
 
CITY SKY/WX TMP DP RH WIND PRES REMARKS
 
DULUTH FAIR 30 22 72 N3 30.24S  
6HR MIN TEMP: 26; 6HR MAX TEMP: 33;  
 
INTRNTL FALLS FAIR 25 22 88 S3 30.21F  
6HR MIN TEMP: 20; 6HR MAX TEMP: 25;  
 
ELY FAIR 25 21 86 CALM 30.23F  
CLOQUET FAIR 28 21 74 CALM 30.25S  
WHEATON FAIR 30 27 86 CALM 30.31S  
BRAINERD FAIR 25 20 81 S3 30.26S  
6HR MIN TEMP: 24; 6HR MAX TEMP: 35;  
 
HIBBING FAIR 22 20 92 CALM 30.24S  
6HR MIN TEMP: 19; 6HR MAX TEMP: 26;  
 
ALEXANDRIA FAIR 29 22 75 CALM 30.27F  
6HR MIN TEMP: 27; 6HR MAX TEMP: 40;  
 
SAINT CLOUD FAIR 28 24 85 NW3 30.27S  
6HR MIN TEMP: 27; 6HR MAX TEMP: 38;  
 
MINNEAPOLIS FAIR 36 25 64 N7 30.26S  
6HR MIN TEMP: 35; 6HR MAX TEMP: 46;  
 

 
 
***** WEATHER ACROSS SOUTH DAKOTA *****  
 
CITY SKY/WX TMP DP RH WIND PRES REMARKS
 
SIOUX FALLS FAIR 31 26 82 NW6 30.28S  
6HR MIN TEMP: 28; 6HR MAX TEMP: 39;  
 
BROOKINGS FAIR 31 28 89 N3 30.29R  
WATERTOWN FAIR 26 26 100 SW3 30.27F  
6HR MIN TEMP: 25; 6HR MAX TEMP: 32;  
 
HURON FAIR 28 26 92 W3 30.31S  
6HR MIN TEMP: 27; 6HR MAX TEMP: 33;  
 
SISSETON N/A 29 26 89 S3 30.28S  
ABERDEEN FAIR 24 22 91 S3 30.29F  
6HR MIN TEMP: 22; 6HR MAX TEMP: 29;  
 
MITCHELL FAIR 31 28 89 W5 30.32S  
PIERRE FAIR 31 29 92 SW9 30.29F WCI 23  
6HR MIN TEMP: 30; 6HR MAX TEMP: 36;  
 
MOBRIDGE FAIR 31 27 85 SE3 30.24F  
RAPID CITY FAIR 26 20 77 SE3 30.26F  
6HR MIN TEMP: 23; 6HR MAX TEMP: 33;  
 

 
 
***** SOME WEATHER IN NEARBY STATES *****  
 
CITY SKY/WX TMP DP RH WIND PRES REMARKS
 
GLASGOW MT FAIR 37 31 78 SE9 30.01F  
6HR MIN TEMP: 36; 6HR MAX TEMP: 46;  
 
GREAT FALLS MT FAIR 48 23 37 SW20 30.05F  
6HR MIN TEMP: 43; 6HR MAX TEMP: 49;  
 
CHEYENNE WY FAIR 23 20 88 NW3 30.32F  
6HR MIN TEMP: 22; 6HR MAX TEMP: 29;  
 
SCOTTSBLUFF NE FAIR 23 22 96 N5 30.35F WCI 17  
6HR MIN TEMP: 22; 6HR MAX TEMP: 31;  
 
OMAHA NE LGT RAIN 44 40 85 N14 30.23R  
6HR MIN TEMP: 44; 6HR MAX TEMP: 50; 6HR PCP: 0.03;  
 
DES MOINES IA CLOUDY 48 36 63 N12 30.17R  
6HR MIN TEMP: 48; 6HR MAX TEMP: 54;  
 
DAVENPORT IA MOCLDY 47 32 56 E9 30.15R  
6HR MIN TEMP: 46; 6HR MAX TEMP: 57;  
 
CHICAGO IL FAIR 44 32 62 N14 30.09R  
6HR MIN TEMP: 43; 6HR MAX TEMP: 49;  
 
EAU CLAIRE WI FAIR 34 26 72 N5 30.23R  
6HR MIN TEMP: 32; 6HR MAX TEMP: 38;  
 
LA CROSSE WI FAIR 40 35 83 N7 30.21R  
6HR MIN TEMP: 37; 6HR MAX TEMP: 46;  
 

 
 
***** SOME NATIONAL WEATHER *****  
 
CITY SKY/WX TMP DP RH WIND PRES REMARKS
 
LA GUARDIA NY LGT RAIN 52 50 93 E12 29.93F FOG  
6HR MIN TEMP: 50; 6HR MAX TEMP: 56; 6HR PCP: 0.38;  
 
RALEIGH NC CLOUDY 61 60 97 CALM 29.75R  
6HR MIN TEMP: 60; 6HR MAX TEMP: 61;  
 
ATLANTA GA CLOUDY 57 55 93 W9 29.91R  
6HR MIN TEMP: 54; 6HR MAX TEMP: 57;  
 
NEW ORLEANS LA FAIR 58 58 100 NW3 30.06S FOG  
6HR MIN TEMP: 57; 6HR MAX TEMP: 69;  
 
OKLAHOMA CITY LGT RAIN 47 45 93 N17 30.20R  
6HR MIN TEMP: 47; 6HR MAX TEMP: 59; 6HR PCP: 0.18;  
 
ALBUQUERQUE NM FAIR 47 33 58 E24 30.24R  
6HR MIN TEMP: 46; 6HR MAX TEMP: 53;  
 
SALT LAKE CITY FAIR 50 26 39 SE10 30.24S  
6HR MIN TEMP: 48; 6HR MAX TEMP: 55;  
 
LOS ANGELES CA CLOUDY 56 50 80 CALM 30.06S  
6HR MIN TEMP: 54; 6HR M  
 
CLICK HERE TO GO TO PREVIOUS BULLETINS.

The Nexlab ND Page
The Nexlab MN Page Main Text Page